Location: Newark
(34.9500°N, 139.9667°E)
Time: 12:19:13
(UTC+00:00)

Altair - Pass Details

Date: 12 December 2019
Orbit: 1502 x 1682 km, 47.2° (Epoch: 19 January)

Event Time Altitude Azimuth Distance (km) Brightness Sun altitude
Exits shadow 16:44:06 12° 106° (ESE) 3,467 9.6 -59.3°
Drops below altitude 10° 16:44:43 10° 107° (ESE) 3,657 9.7 -59.2°
Sets 16:47:48 0° 111° (ESE) 4,647 10.4 -58.6°
